DW2819 Weather Reports


Display with metric or nautical units.
time (UTC)temp
F
wind
direction
speed
MPH
gust
MPH
rain 1hr
in
rain 24hr
in
rain mn
in
humidity
%
barometer
mb
20260508062008 49 92 2.0 7.0 0.00 0.00 0.00 47 1025.4
20260508061007 49 345 2.0 5.0 0.00 0.00 0.00 48 1025.2
20260508060009 48 8 4.0 9.0 0.00 0.00 0.00 48 1025.2
20260508055515 48 302 1.0 4.0 0.00 0.00 0.00 49 1025.1
20260508055016 48 313 1.0 4.0 0.00 0.00 0.00 50 1025.0
20260508054512 47 307 2.0 7.0 0.00 0.00 0.00 51 1025.0
20260508054016 47 17 3.0 7.0 0.00 0.00 0.00 52 1024.9
20260508053511 46 357 1.0 5.0 0.00 0.00 0.00 53 1024.9
20260508053011 46 341 2.0 7.0 0.00 0.00 0.00 53 1024.9
20260508052510 45 0 3.0 7.0 0.00 0.00 0.00 54 1024.8
20260508052007 45 321 2.0 6.0 0.00 0.00 0.00 55 1024.8
20260508051507 45 330 2.0 5.0 0.00 0.00 0.00 56 1024.7
20260508050511 44 319 3.0 5.0 0.00 0.00 0.00 57 1024.6
20260508050016 44 337 3.0 5.0 0.00 0.00 0.00 57 1024.6
20260508045504 44 343 2.0 5.0 0.00 0.00 0.00 58 1024.6
20260508045010 43 323 2.0 4.0 0.00 0.00 0.00 58 1024.5
20260508044503 43 331 2.0 3.0 0.00 0.00 0.00 58 1024.3
20260508044005 43 336 1.0 5.0 0.00 0.00 0.00 59 1024.3
20260508043504 42 319 2.0 5.0 0.00 0.00 0.00 59 1024.3
20260508043005 42 344 2.0 3.0 0.00 0.00 0.00 60 1024.2
20260508042520 42 111 1.0 5.0 0.00 0.00 0.00 60 1024.2
20260508042000 41 341 2.0 5.0 0.00 0.00 0.00 61 1024.2
20260508040958 40 343 2.0 4.0 0.00 0.00 0.00 62 1024.0
20260508040501 40 338 2.0 5.0 0.00 0.00 0.00 62 1024.0
20260508035941 40 0 3.0 5.0 0.00 0.00 0.00 62 1023.9
20260508034930 39 344 1.0 3.0 0.00 0.00 0.00 63 1023.9
20260508034435 39 333 2.0 4.0 0.00 0.00 0.00 63 1023.8
20260508033932 38 337 3.0 4.0 0.00 0.00 0.00 64 1023.7
20260508033407 38 344 1.0 4.0 0.00 0.00 0.00 64 1023.6
20260508032915 38 330 2.0 4.0 0.00 0.00 0.00 65 1023.5
20260508032414 38 340 2.0 4.0 0.00 0.00 0.00 65 1023.5
20260508031912 37 348 2.0 4.0 0.00 0.00 0.00 66 1023.4
20260508031410 37 337 1.0 4.0 0.00 0.00 0.00 66 1023.4
20260508030914 37 347 2.0 4.0 0.00 0.00 0.00 66 1023.4
20260508030409 37 348 2.0 4.0 0.00 0.00 0.00 66 1023.3
20260508025912 36 302 2.0 4.0 0.00 0.00 0.00 66 1023.2
20260508025409 36 338 2.0 4.0 0.00 0.00 0.00 66 1023.2
20260508024402 36 340 1.0 3.0 0.00 0.00 0.00 67 1023.0
20260508022904 36 337 2.0 3.0 0.00 0.00 0.00 67 1022.9
20260508022401 36 344 2.0 3.0 0.00 0.00 0.00 66 1022.8
20260508021356 36 341 1.0 3.0 0.00 0.00 0.00 66 1022.7
20260508020856 36 347 2.0 3.0 0.00 0.00 0.00 65 1022.6
20260508020352 36 343 1.0 3.0 0.00 0.00 0.00 65 1022.6
20260508015835 36 354 2.0 3.0 0.00 0.00 0.00 64 1022.5
20260508015336 37 338 2.0 3.0 0.00 0.00 0.00 64 1022.4
20260508014833 37 336 1.0 3.0 0.00 0.00 0.00 64 1022.4
20260508014311 37 345 2.0 3.0 0.00 0.00 0.00 64 1022.4
20260508013811 37 343 2.0 3.0 0.00 0.00 0.00 64 1022.4
20260508013311 37 348 2.0 3.0 0.00 0.00 0.00 63 1022.3
20260508012826 37 324 1.0 3.0 0.00 0.00 0.00 63 1022.2
20260508012311 37 340 2.0 5.0 0.00 0.00 0.00 63 1022.2
20260508011810 37 343 2.0 5.0 0.00 0.00 0.00 63 1022.1
20260508010807 37 341 1.0 3.0 0.00 0.00 0.00 63 1022.1
20260508010316 37 350 2.0 3.0 0.00 0.00 0.00 63 1021.9
20260508005818 38 344 1.0 2.0 0.00 0.00 0.00 62 1021.9
20260508005313 38 343 1.0 2.0 0.00 0.00 0.00 61 1021.8
20260508004819 38 331 1.0 3.0 0.00 0.00 0.00 61 1021.9
20260508004313 38 350 1.0 3.0 0.00 0.00 0.00 61 1021.8
20260508003808 39 348 1.0 3.0 0.00 0.00 0.00 60 1021.7
20260508003310 39 338 1.0 2.0 0.00 0.00 0.00 60 1021.6
20260508002811 39 0 1.0 3.0 0.00 0.00 0.00 59 1021.6
20260508002308 39 350 2.0 3.0 0.00 0.00 0.00 59 1021.5
20260508001810 39 343 1.0 3.0 0.00 0.00 0.00 59 1021.4
20260508001308 40 353 2.0 3.0 0.00 0.00 0.00 59 1021.4
20260508000809 40 351 1.0 3.0 0.00 0.00 0.00 59 1021.2
20260508000312 40 334 2.0 4.0 0.00 0.00 0.00 59 1021.2
20260507235811 40 333 2.0 4.0 0.00 0.00 0.00 59 1021.2
20260507235313 40 345 1.0 3.0 0.00 0.00 0.00 59 1021.1
20260507234809 40 300 2.0 4.0 0.00 0.00 0.00 59 1021.0
20260507234309 40 341 2.0 4.0 0.00 0.00 0.00 58 1021.0
20260507233810 41 345 2.0 4.0 0.00 0.00 0.00 58 1020.9
20260507233309 41 343 2.0 4.0 0.00 0.00 0.00 58 1020.9
20260507232807 41 338 2.0 4.0 0.00 0.00 0.00 57 1020.8
20260507231806 41 337 1.0 4.0 0.00 0.00 0.00 57 1020.7
20260507231311 41 313 2.0 4.0 0.00 0.00 0.00 56 1020.7
20260507230807 42 344 2.0 4.0 0.00 0.00 0.00 56 1020.6
20260507230306 42 312 2.0 4.0 0.00 0.00 0.00 56 1020.5
20260507225805 42 0 1.0 4.0 0.00 0.00 0.00 56 1020.4
20260507225305 42 333 2.0 4.0 0.00 0.00 0.00 55 1020.4
20260507224803 42 344 2.0 3.0 0.00 0.00 0.00 55 1020.3
20260507224306 42 326 2.0 3.0 0.00 0.00 0.00 54 1020.3
20260507223803 42 310 2.0 3.0 0.00 0.00 0.00 54 1020.2
20260507223302 42 338 2.0 3.0 0.00 0.00 0.00 54 1020.1
20260507222803 42 337 1.0 4.0 0.00 0.00 0.00 54 1020.1
20260507221803 42 345 1.0 4.0 0.00 0.00 0.00 54 1020.0
20260507221302 42 344 2.0 4.0 0.00 0.00 0.00 54 1020.0
20260507220303 42 353 1.0 3.0 0.00 0.00 0.00 54 1019.8
20260507215803 41 338 1.0 3.0 0.00 0.00 0.00 54 1019.8
20260507215302 41 323 1.0 3.0 0.00 0.00 0.00 54 1019.8
20260507214802 41 353 1.0 3.0 0.00 0.00 0.00 55 1019.6
20260507214302 41 354 0.0 1.0 0.00 0.00 0.00 55 1019.7
20260507213302 41 354 0.0 3.0 0.00 0.00 0.00 55 1019.5
20260507212813 41 354 0.0 3.0 0.00 0.00 0.00 57 1019.4
20260507211803 42 345 0.0 2.0 0.00 0.00 0.00 57 1019.3
20260507211302 42 345 0.0 3.0 0.00 0.00 0.00 56 1019.3
20260507210805 42 344 0.0 3.0 0.00 0.00 0.00 56 1019.1
20260507210302 42 317 0.0 2.0 0.00 0.00 0.00 56 1019.1
20260507205803 42 337 1.0 2.0 0.00 0.00 0.00 56 1019.0
20260507205306 42 331 0.0 2.0 0.00 0.00 0.00 58 1019.0
20260507204746 42 331 0.0 3.0 0.00 0.00 0.00 54 1018.9
20260507204238 42 333 1.0 3.0 0.00 0.00 0.00 51 1018.9
20260507203736 42 358 1.0 3.0 0.00 0.00 0.00 51 1018.8
20260507203237 42 309 0.0 2.0 0.00 0.00 0.00 52 1018.7
20260507202737 43 323 0.0 2.0 0.00 0.00 0.00 51 1018.6
20260507202231 43 323 0.0 2.0 0.00 0.00 0.00 51 1018.6
20260507201732 43 348 0.0 2.0 0.00 0.00 0.00 52 1018.5
20260507201230 44 344 0.0 0.0 0.00 0.00 0.00 50 1018.5
20260507200738 44 348 0.0 0.0 0.00 0.00 0.00 49 1018.3
20260507195722 44 348 2.0 3.0 0.00 0.00 0.00 46 1018.2
20260507195218 44 343 1.0 2.0 0.00 0.00 0.00 45 1018.2
20260507194708 44 343 0.0 4.0 0.00 0.00 0.00 47 1018.1
20260507194207 44 348 1.0 4.0 0.00 0.00 0.00 45 1018.0
20260507193706 44 331 1.0 3.0 0.00 0.00 0.00 45 1017.9
20260507193207 43 340 0.0 2.0 0.00 0.00 0.00 45 1017.9
20260507192710 43 337 1.0 3.0 0.00 0.00 0.00 47 1017.8
20260507192206 43 337 1.0 3.0 0.00 0.00 0.00 47 1017.7
20260507191706 43 300 1.0 2.0 0.00 0.00 0.00 45 1017.6
20260507190703 44 200 0.0 0.0 0.00 0.00 0.00 46 1017.5
20260507190206 44 200 0.0 0.0 0.00 0.00 0.00 48 1017.3
20260507185703 44 200 0.0 0.0 0.00 0.00 0.00 47 1017.3
20260507185203 45 200 0.0 0.0 0.00 0.00 0.00 44 1017.3
20260507184707 45 200 0.0 0.0 0.00 0.00 0.00 46 1017.3
20260507184205 45 200 0.0 0.0 0.00 0.00 0.00 45 1017.2
20260507183705 45 200 0.0 0.0 0.00 0.00 0.00 43 1017.2
20260507183202 46 200 0.0 0.0 0.00 0.00 0.00 44 1017.0
20260507182704 46 200 0.0 0.0 0.00 0.00 0.00 44 1016.9
20260507182205 46 200 0.0 0.0 0.00 0.00 0.00 42 1016.9
20260507181702 46 200 0.0 0.0 0.00 0.00 0.00 45 1016.8
20260507180702 47 200 1.0 4.0 0.00 0.00 0.00 42 1016.6
20260507175702 47 190 0.0 2.0 0.00 0.00 0.00 42 1016.6
20260507175152 48 190 0.0 2.0 0.00 0.00 0.00 43 1016.6
20260507174133 48 123 0.0 2.0 0.00 0.00 0.00 40 1016.5
20260507173633 49 123 0.0 2.0 0.00 0.00 0.00 39 1016.5
20260507172630 49 123 0.0 2.0 0.00 0.00 0.00 37 1016.4
20260507171115 50 123 1.0 2.0 0.00 0.00 0.00 37 1016.3
20260507170609 50 147 0.0 2.0 0.00 0.00 0.00 35 1016.3
20260507170107 51 157 1.0 3.0 0.00 0.00 0.00 35 1016.3
20260507165609 51 197 2.0 3.0 0.00 0.00 0.00 37 1016.3
20260507165108 51 192 1.0 2.0 0.00 0.00 0.00 37 1016.3
20260507164607 51 192 1.0 3.0 0.00 0.00 0.00 36 1016.2
20260507164106 52 131 1.0 3.0 0.00 0.00 0.00 33 1016.2
20260507163606 52 190 1.0 4.0 0.00 0.00 0.00 32 1016.1
20260507163113 52 117 0.0 4.0 0.00 0.00 0.00 33 1016.2
20260507162605 53 197 1.0 3.0 0.00 0.00 0.00 30 1016.1
20260507162106 53 188 1.0 3.0 0.00 0.00 0.00 30 1016.1
20260507161609 53 212 1.0 9.0 0.00 0.00 0.00 31 1016.0
20260507161111 53 161 3.0 9.0 0.00 0.00 0.00 32 1016.0
20260507160609 54 203 2.0 4.0 0.00 0.00 0.00 31 1015.8
20260507160105 54 180 2.0 5.0 0.00 0.00 0.00 31 1015.8
20260507155606 54 0 3.0 5.0 0.00 0.00 0.00 30 1015.7
20260507155107 54 1 1.0 5.0 0.00 0.00 0.00 30 1015.7
20260507154608 55 104 1.0 5.0 0.00 0.00 0.00 29 1015.6
20260507154108 55 87 2.0 4.0 0.00 0.00 0.00 31 1015.7
20260507153605 55 207 2.0 6.0 0.00 0.00 0.00 31 1015.6
20260507153106 55 309 3.0 7.0 0.00 0.00 0.00 29 1015.5
20260507152607 55 147 4.0 7.0 0.00 0.00 0.00 28 1015.5
20260507152108 55 123 3.0 7.0 0.00 0.00 0.00 30 1015.4
20260507151606 55 109 2.0 13.0 0.00 0.00 0.00 30 1015.4
20260507151104 55 118 3.0 13.0 0.00 0.00 0.00 27 1015.4
20260507150607 56 123 2.0 5.0 0.00 0.00 0.00 28 1015.4
20260507150106 56 125 2.0 5.0 0.00 0.00 0.00 29 1015.4
20260507145609 56 127 2.0 7.0 0.00 0.00 0.00 31 1015.5
20260507145106 56 231 2.0 7.0 0.00 0.00 0.00 32 1015.4
20260507144609 56 89 3.0 6.0 0.00 0.00 0.00 29 1015.4
20260507144105 56 196 2.0 5.0 0.00 0.00 0.00 29 1015.4
20260507143607 56 49 3.0 7.0 0.00 0.00 0.00 28 1015.4
20260507143108 56 113 2.0 7.0 0.00 0.00 0.00 28 1015.3
20260507142607 56 171 3.0 7.0 0.00 0.00 0.00 29 1015.3
20260507142108 56 82 1.0 7.0 0.00 0.00 0.00 29 1015.2
20260507141606 56 78 2.0 7.0 0.00 0.00 0.00 29 1015.2
20260507140124 56 142 2.0 6.0 0.00 0.00 0.00 29 1015.1
20260507135609 56 94 3.0 7.0 0.00 0.00 0.00 28 1015.2
20260507135105 56 159 4.0 7.0 0.00 0.00 0.00 28 1015.2
20260507134609 56 155 2.0 7.0 0.00 0.00 0.00 30 1015.2
20260507134109 56 79 2.0 7.0 0.00 0.00 0.00 29 1015.1
20260507133605 56 124 2.0 7.0 0.00 0.00 0.00 29 1015.2
20260507133106 57 178 2.0 7.0 0.00 0.00 0.00 29 1015.2
20260507132607 57 113 3.0 5.0 0.00 0.00 0.00 30 1015.1
20260507132105 57 127 2.0 5.0 0.00 0.00 0.00 30 1015.2
20260507131607 57 299 2.0 5.0 0.00 0.00 0.00 30 1015.2
20260507131121 57 247 2.0 4.0 0.00 0.00 0.00 30 1015.2
20260507130606 56 179 1.0 6.0 0.00 0.00 0.00 30 1015.2
20260507130112 56 114 4.0 11.0 0.00 0.00 0.00 30 1015.3
20260507125605 56 262 4.0 11.0 0.00 0.00 0.00 29 1015.2
20260507125108 56 338 2.0 10.0 0.00 0.00 0.00 29 1015.3
20260507124609 56 59 4.0 10.0 0.00 0.00 0.00 29 1015.2
20260507124106 56 79 5.0 10.0 0.00 0.00 0.00 29 1015.2
20260507123605 56 155 4.0 10.0 0.00 0.00 0.00 29 1015.2
20260507123105 57 161 6.0 10.0 0.00 0.00 0.00 29 1015.1
20260507122607 57 176 3.0 6.0 0.00 0.00 0.00 29 1015.1
20260507122109 57 141 2.0 5.0 0.00 0.00 0.00 28 1015.1
20260507121605 57 66 2.0 6.0 0.00 0.00 0.00 27 1015.0
20260507121109 58 272 1.0 6.0 0.00 0.00 0.00 27 1015.0
20260507120606 57 173 0.0 3.0 0.00 0.00 0.00 28 1015.0
20260507120104 57 307 1.0 5.0 0.00 0.00 0.00 27 1015.1
20260507115612 58 355 1.0 7.0 0.00 0.00 0.00 25 1015.1
20260507115108 58 102 4.0 7.0 0.00 0.00 0.00 25 1015.0
20260507114604 58 103 2.0 5.0 0.00 0.00 0.00 25 1015.0
20260507114107 58 76 3.0 9.0 0.00 0.00 0.00 25 1015.0
20260507113608 58 59 5.0 9.0 0.00 0.00 0.00 24 1015.0
20260507113105 58 87 3.0 6.0 0.00 0.00 0.00 25 1015.1
20260507112606 59 28 4.0 6.0 0.00 0.00 0.00 25 1015.1
20260507112105 59 68 2.0 5.0 0.00 0.00 0.00 25 1015.1
20260507111608 58 76 2.0 5.0 0.00 0.00 0.00 24 1015.0
20260507111108 58 68 2.0 5.0 0.00 0.00 0.00 25 1015.1
20260507110609 59 6 2.0 6.0 0.00 0.00 0.00 26 1015.0
20260507110110 58 337 2.0 6.0 0.00 0.00 0.00 25 1015.1
20260507105605 58 141 2.0 5.0 0.00 0.00 0.00 25 1015.0
20260507105107 58 182 2.0 5.0 0.00 0.00 0.00 25 1015.0
20260507104105 58 55 5.0 6.0 0.00 0.00 0.00 25 1015.1
20260507103609 57 44 3.0 6.0 0.00 0.00 0.00 26 1015.1
20260507102603 58 90 3.0 6.0 0.00 0.00 0.00 25 1015.3
20260507102101 58 14 2.0 5.0 0.00 0.00 0.00 25 1015.1
20260507101102 57 58 4.0 7.0 0.00 0.00 0.00 26 1015.1
20260507100601 57 23 2.0 10.0 0.00 0.00 0.00 26 1015.1
20260507100105 58 72 2.0 10.0 0.00 0.00 0.00 26 1015.2
20260507095559 58 114 5.0 9.0 0.00 0.00 0.00 26 1015.0
20260507095055 58 79 4.0 7.0 0.00 0.00 0.00 26 1015.0
20260507094547 57 68 3.0 5.0 0.00 0.00 0.00 26 1015.0
20260507094038 56 192 1.0 4.0 0.00 0.00 0.00 27 1015.0
20260507093535 56 164 2.0 5.0 0.00 0.00 0.00 28 1015.0
20260507092530 56 247 2.0 4.0 0.00 0.00 0.00 27 1015.2
20260507092033 56 141 2.0 5.0 0.00 0.00 0.00 26 1015.2
20260507091524 57 86 2.0 5.0 0.00 0.00 0.00 27 1015.2
20260507091023 57 14 3.0 5.0 0.00 0.00 0.00 28 1015.1
20260507090014 57 0 4.0 7.0 0.00 0.00 0.00 27 1015.2
20260507085511 56 149 3.0 7.0 0.00 0.00 0.00 27 1015.3
20260507085011 56 110 3.0 7.0 0.00 0.00 0.00 29 1015.3
20260507084512 56 157 1.0 6.0 0.00 0.00 0.00 27 1015.2
20260507084011 56 127 3.0 6.0 0.00 0.00 0.00 30 1015.3
20260507083505 56 80 4.0 6.0 0.00 0.00 0.00 27 1015.3
20260507083007 55 48 2.0 5.0 0.00 0.00 0.00 28 1015.3
20260507082510 54 313 2.0 6.0 0.00 0.00 0.00 29 1015.3
20260507082006 56 107 4.0 6.0 0.00 0.00 0.00 28 1015.5
20260507081507 56 87 2.0 6.0 0.00 0.00 0.00 29 1015.5
20260507081005 55 82 2.0 4.0 0.00 0.00 0.00 28 1015.5
20260507080510 54 83 2.0 4.0 0.00 0.00 0.00 29 1015.5
20260507080011 54 76 2.0 9.0 0.00 0.00 0.00 27 1015.4
20260507075506 55 71 4.0 9.0 0.00 0.00 0.00 28 1015.5
20260507075005 54 83 3.0 6.0 0.00 0.00 0.00 27 1015.5
20260507074508 54 85 2.0 5.0 0.00 0.00 0.00 31 1015.5
20260507074009 53 73 2.0 5.0 0.00 0.00 0.00 31 1015.5
20260507073007 53 131 2.0 6.0 0.00 0.00 0.00 31 1015.5
20260507072006 53 120 2.0 4.0 0.00 0.00 0.00 33 1015.6
20260507071508 53 28 2.0 4.0 0.00 0.00 0.00 31 1015.6
20260507071006 53 45 3.0 4.0 0.00 0.00 0.00 33 1015.6
20260507070511 53 68 2.0 4.0 0.00 0.00 0.00 33 1015.6
20260507070013 52 0 2.0 4.0 0.00 0.00 0.00 33 1015.6
20260507065507 53 93 2.0 5.0 0.00 0.00 0.00 33 1015.5
20260507065010 52 125 3.0 5.0 0.00 0.00 0.00 33 1015.5
20260507064508 52 124 2.0 5.0 0.00 0.00 0.00 33 1015.5
20260507064005 52 14 2.0 4.0 0.00 0.00 0.00 34 1015.6
20260507063509 51 34 2.0 4.0 0.00 0.00 0.00 34 1015.5
20260507063007 51 58 1.0 5.0 0.00 0.00 0.00 34 1015.6
20260507062508 50 58 2.0 5.0 0.00 0.00 0.00 33 1015.6